Location: Creola (historical)
(38.1334°N, 100.5024°W)
Time: 07:40:46
(UTC+00:00)

Cosmos 1674 - Pass Details

Date: 18 October 2021
Orbit: 492 x 514 km, 82.5° (Epoch: 30 November)

Event Time Altitude Azimuth Distance (km) Brightness Sun altitude
Rises 12:01:33 0° 200° (SSW) 2,558 6.1 -11.0°
Reaches altitude 10° 12:03:42 10° 206° (SSW) 1,682 5.1 -10.6°
Maximum altitude 12:07:14 44° 280° (W) 691 2.9 -9.9°
Drops below altitude 10° 12:10:49 10° 354° (N) 1,702 5.2 -9.2°
Sets 12:13:01 0° 1° (N) 2,593 6.2 -8.8°
